Wind_Speed
20 21 21 21 22 20 21 22 21 19 18 19 18 17 16 16 16 16 16 15 14 14 13 13 12 12 11 10 9 9 8 8 8 7 8 8 8 8 8 8 9 10 10 9 10 10 10 10 10
19 19 21 22 23 22 22 22 20 19 19 19 17 17 16 15 15 15 15 15 14 14 14 13 13 12 11 10 9 9 8 8 8 8 9 9 8 8 8 8 8 9 9 9 9 10 10 9 10
18 19 21 23 23 23 23 22 21 20 20 19 18 17 16 16 15 15 15 14 14 15 14 13 13 12 11 10 9 9 9 8 8 9 8 8 9 9 8 8 7 8 9 9 9 9 9 9 9
18 19 21 22 22 23 23 23 21 20 19 19 18 17 16 16 16 15 15 15 15 15 15 14 13 12 12 11 10 9 9 8 8 8 7 8 9 8 8 8 7 8 8 8 9 8 8 9 9
16 19 21 20 22 22 22 23 22 20 19 19 18 17 17 16 16 15 15 16 16 15 15 15 14 13 12 11 10 10 9 9 8 8 8 8 9 8 8 8 7 7 8 8 8 8 8 8 9
15 18 19 19 20 21 21 22 21 20 20 19 19 18 17 17 16 16 16 16 16 16 16 15 15 14 12 11 10 10 9 9 9 9 8 8 8 8 8 8 7 7 8 8 8 8 8 8 8
14 17 18 18 18 20 20 21 19 20 20 20 19 19 19 18 18 17 16 16 16 16 16 16 15 15 13 12 12 11 10 10 9 9 8 8 8 8 7 7 7 7 8 8 8 8 8 8 7
14 16 17 18 17 18 20 19 19 20 20 20 20 19 19 19 18 18 17 16 17 17 17 17 16 15 14 13 12 12 11 10 10 8 8 8 8 7 7 7 7 7 8 8 8 8 8 8 7
13 14 15 16 16 18 19 19 19 20 20 20 20 19 18 19 18 18 17 17 17 17 17 17 16 15 14 14 12 12 12 11 10 8 7 7 7 7 7 7 7 6 7 7 7 8 8 8 7
11 12 13 14 15 16 17 17 19 20 20 20 20 19 18 19 18 18 17 17 17 17 17 17 16 16 15 15 13 13 12 12 10 9 8 8 7 7 6 6 6 6 7 7 7 7 7 7 7
9 10 11 13 14 15 16 17 18 20 19 19 18 18 18 18 18 18 18 17 17 17 17 17 16 15 15 14 14 13 12 11 10 9 8 6 7 6 6 6 6 6 6 5 5 6 6 6 6
8 9 10 12 14 14 15 16 17 18 18 18 17 17 18 18 18 17 17 17 17 16 16 16 15 14 14 13 14 13 12 11 10 9 8 7 6 6 5 5 5 5 4 4 4 5 5 5 6
7 7 8 10 13 13 13 14 15 15 16 17 17 16 17 16 16 16 16 16 16 16 15 15 15 14 13 13 13 12 11 10 9 9 8 8 6 6 5 5 4 4 4 4 4 4 3 4 4
6 5 4 7 10 11 11 12 14 14 15 15 15 16 16 16 16 16 16 16 16 16 16 16 16 15 13 12 12 11 10 10 9 8 8 7 6 5 5 5 4 3 3 2 3 3 2 2 2
6 4 2 4 7 9 10 12 13 13 14 14 14 15 16 15 15 16 16 16 15 15 16 15 15 15 14 12 11 11 10 10 9 9 8 7 6 5 4 4 3 2 2 1 2 2 2 1 1
6 4 1 2 4 7 9 11 12 12 14 15 14 14 15 15 15 15 15 15 15 15 15 15 15 15 14 13 11 10 10 9 9 9 8 7 6 6 4 4 3 2 1 1 1 1 1 1 2
6 5 3 0 3 6 8 10 11 11 13 14 14 14 15 15 15 14 14 15 15 15 14 14 15 14 14 13 11 10 9 9 8 8 7 6 6 6 5 4 3 3 1 1 1 0 1 2 2
8 5 4 3 1 5 7 9 10 11 11 13 13 13 13 13 13 14 14 14 14 15 14 13 14 14 14 12 11 9 8 8 7 7 6 5 4 5 4 3 3 3 2 1 0 1 1 2 2
9 7 5 4 2 4 6 8 9 10 11 12 12 12 12 12 12 12 13 13 14 14 14 13 13 13 12 12 11 10 8 7 7 6 6 6 4 4 3 3 2 2 2 1 1 1 2 2 3
11 9 6 5 5 5 6 8 7 8 10 10 11 11 11 11 11 11 11 12 13 13 13 13 12 12 12 12 11 10 9 8 7 7 6 6 5 4 3 2 2 2 2 1 1 2 3 3 3
13 11 9 8 7 7 7 7 8 7 8 8 8 9 9 10 10 10 10 11 11 12 12 12 12 12 12 12 12 11 10 9 8 7 7 6 5 5 4 3 2 2 2 3 3 4 4 4 4
16 13 13 12 10 9 9 9 9 8 7 6 7 7 7 8 9 9 9 9 10 10 11 11 11 11 11 11 12 11 11 11 9 8 7 6 5 5 4 4 3 3 3 4 4 4 5 6 6
17 16 16 16 15 14 12 11 10 10 8 7 7 7 6 8 8 8 8 8 9 10 10 10 10 10 11 11 11 12 12 11 10 9 8 7 6 5 5 4 4 4 4 5 6 6 6 7 7
20 20 19 19 18 17 14 13 12 11 10 10 9 8 7 8 7 7 7 8 8 9 9 9 9 10 10 11 11 11 11 12 11 10 8 8 7 7 6 5 5 5 6 6 6 6 7 8 7
24 23 22 22 21 19 15 14 13 12 11 11 10 9 8 8 7 6 6 7 7 8 9 9 9 9 10 11 11 10 11 12 12 11 10 9 8 7 6 6 6 6 6 6 7 7 8 8 8
26 26 25 24 22 20 18 16 12 11 10 10 9 8 8 8 7 6 7 7 7 8 8 9 9 9 10 11 11 11 11 12 12 11 11 10 9 7 6 6 6 6 6 7 7 8 8 9 9
27 27 25 24 22 21 18 16 14 12 10 10 9 9 9 8 8 7 6 7 7 7 8 9 10 10 10 11 11 12 11 12 11 11 11 10 10 8 7 7 7 7 8 8 9 9 9 10 10
28 27 27 26 24 22 20 18 15 11 10 11 11 9 9 9 9 8 7 7 7 8 8 9 10 10 11 11 12 12 12 12 11 12 12 11 10 10 9 8 9 9 9 9 10 10 10 10 10
29 28 28 27 26 24 22 21 17 13 12 12 12 12 11 10 9 9 8 9 9 8 9 10 10 11 11 11 12 12 12 12 11 11 12 12 11 10 10 9 9 9 9 9 10 11 11 10 10
30 29 28 29 28 26 25 23 20 17 14 14 13 12 12 10 9 9 9 9 10 9 9 10 11 12 11 11 12 12 12 12 12 12 12 12 11 11 11 10 10 10 10 11 11 11 11 12 12
Wind_Direction
69 65 60 57 52 49 53 56 55 55 54 54 54 53 54 57 59 62 61 60 60 63 66 68 70 72 72 76 83 81 81 84 87 93 99 105 109 111 118 117 116 114 114 115 111 110 110 109 109
67 65 61 56 52 50 53 54 54 55 56 54 51 50 53 58 62 62 61 60 60 62 64 66 67 69 70 74 78 79 81 86 92 95 99 104 105 107 113 118 117 115 112 110 109 110 110 111 110
69 65 60 55 53 52 54 55 52 53 55 54 52 52 54 59 61 61 61 62 63 63 63 64 65 67 69 72 75 77 80 87 93 96 97 101 103 105 107 112 113 109 107 106 110 113 113 112 112
68 65 61 54 52 51 52 54 53 52 53 54 53 52 54 59 60 60 62 63 64 63 63 64 65 67 69 70 73 74 79 84 91 95 98 103 105 106 109 108 109 106 104 105 109 110 109 110 111
67 63 57 51 48 50 49 51 50 51 50 52 53 52 55 60 61 62 62 63 65 64 64 64 64 66 68 72 75 75 81 86 92 95 99 103 104 106 109 111 110 108 109 107 104 102 105 108 109
67 61 54 49 46 51 51 51 49 47 48 50 52 50 53 60 61 62 62 64 65 64 63 64 64 64 66 68 73 76 80 86 91 97 98 100 104 105 108 112 113 114 115 109 103 101 104 104 106
61 58 54 51 46 48 50 51 52 48 47 49 51 51 52 58 58 59 62 64 64 63 63 65 65 65 66 65 67 75 82 88 91 96 100 101 103 104 106 109 112 112 110 104 102 102 100 102 105
61 59 56 54 48 48 50 51 52 51 48 48 49 49 51 56 57 58 59 62 63 64 65 65 64 64 65 66 67 73 79 85 90 92 95 101 103 104 106 107 106 105 108 104 106 105 98 100 103
60 57 54 55 51 50 51 51 50 50 49 48 48 49 52 55 55 58 59 61 63 63 65 63 62 62 64 65 66 71 77 82 85 87 90 97 102 105 108 107 106 105 108 108 110 108 103 104 104
60 55 55 53 53 53 52 53 50 48 46 46 47 48 50 53 56 58 61 61 61 61 60 58 59 61 63 63 64 67 72 74 76 80 87 95 101 108 107 106 109 109 113 110 111 110 107 106 105
72 62 56 52 51 52 50 51 51 48 45 45 46 46 50 53 57 57 58 60 60 60 58 56 55 58 60 62 63 64 65 68 71 72 74 88 103 108 106 108 110 114 121 120 119 116 112 112 108
84 65 55 51 48 45 42 43 45 46 45 44 45 47 50 53 56 58 58 59 61 61 58 56 55 57 61 61 61 62 64 66 67 71 72 87 98 97 99 120 118 113 123 129 119 116 115 115 111
103 79 58 53 46 39 37 39 39 40 41 42 42 44 49 53 53 54 55 57 57 58 57 55 53 57 59 58 60 61 64 69 71 73 71 74 79 94 106 114 113 121 121 126 123 117 120 108 108
130 108 69 49 47 37 32 38 36 37 37 38 40 41 44 49 51 51 50 51 51 53 54 54 52 52 53 53 57 61 61 62 66 70 68 67 73 79 91 93 95 125 128 136 142 137 123 128 115
152 134 90 54 54 43 31 32 32 35 35 35 38 40 41 43 46 46 46 48 48 49 49 50 50 50 52 52 54 60 61 60 62 65 64 62 64 68 74 83 96 110 109 112 164 155 147 184 225
171 174 156 69 49 34 23 25 30 28 29 30 34 39 43 43 41 43 44 46 49 49 47 46 45 46 50 52 54 60 61 59 59 61 63 58 55 61 72 75 72 81 83 104 124 170 196 238 258
175 182 178 231 25 18 8 6 14 17 22 27 28 32 38 42 40 40 43 46 50 49 46 44 44 45 48 50 54 56 58 56 55 55 55 50 47 49 47 55 54 50 59 111 124 206 233 265 263
179 173 171 200 345 354 348 354 360 7 15 20 23 26 32 36 38 36 40 44 46 44 41 40 41 44 47 47 48 51 55 52 48 43 39 40 41 38 39 40 42 36 18 5 7 240 238 253 269
187 198 208 202 249 315 327 341 352 360 8 13 18 24 33 36 35 33 36 39 42 43 40 39 39 41 42 43 42 44 43 38 35 31 30 32 32 34 23 13 356 360 2 344 272 248 266 268 267
198 200 212 210 232 277 305 323 329 344 359 7 15 23 26 26 28 29 33 35 36 37 37 36 37 37 37 39 37 37 33 29 24 24 22 25 26 26 10 349 339 332 334 325 304 297 293 294 288
202 196 207 219 240 256 272 294 310 329 351 1 9 17 19 17 16 22 28 31 33 33 33 34 33 31 31 31 31 30 27 24 20 19 16 14 12 10 9 353 336 333 327 325 316 307 307 301 288
206 205 206 214 232 240 256 277 297 311 327 344 354 357 3 4 3 11 20 23 24 25 27 28 28 25 24 24 23 24 24 23 17 12 10 8 6 3 356 350 346 326 307 311 310 308 307 300 292
210 208 210 213 226 232 241 261 276 288 300 316 327 336 340 343 346 357 8 15 16 16 18 20 21 18 18 18 19 22 21 20 18 11 5 359 354 349 345 336 334 324 315 313 307 306 305 301 296
213 214 215 218 222 227 235 249 260 274 290 306 315 323 326 327 324 338 354 2 7 8 8 10 13 12 12 12 13 14 15 16 14 9 2 354 347 343 338 332 328 320 315 312 310 306 301 301 296
215 217 219 221 225 230 233 242 256 272 287 302 316 319 321 318 311 328 340 345 352 358 359 359 3 5 5 4 6 6 4 6 6 3 358 353 347 338 332 330 328 323 320 316 309 305 299 301 295
218 221 223 224 228 231 235 243 257 269 273 291 305 310 317 318 312 319 327 330 338 345 349 349 351 357 358 357 357 356 356 357 355 353 350 347 345 339 328 325 321 318 316 314 311 306 302 301 298
222 224 225 227 229 232 234 241 250 258 263 279 291 303 311 305 304 307 310 315 322 331 340 342 345 349 349 348 348 349 350 349 349 347 344 344 344 338 328 324 321 317 316 313 310 309 303 302 301
225 224 225 227 228 231 234 240 251 260 265 281 283 288 294 290 296 299 297 306 311 318 327 333 338 341 341 342 344 347 346 345 344 344 345 342 337 333 331 327 323 319 316 314 312 312 313 305 301
223 222 225 228 231 233 236 239 244 248 259 267 273 280 284 287 281 287 290 294 296 304 315 325 331 331 332 333 336 339 340 339 339 340 341 340 339 336 332 328 324 316 313 318 320 318 316 311 307
223 223 224 228 230 232 236 241 242 245 254 261 268 279 280 276 279 279 277 281 286 296 308 317 323 325 326 328 330 334 334 334 334 336 337 335 331 332 332 329 326 324 315 314 317 316 314 310 309
Height
5911 5910 5910 5910 5908 5907 5905 5904 5902 5901 5900 5898 5898 5897 5896 5895 5894 5895 5891 5889 5888 5888 5887 5886 5885 5885 5884 5884 5883 5883 5883 5883 5883 5883 5883 5883 5883 5883 5883 5883 5883 5883 5883 5883 5883 5884 5884 5884 5885
5914 5913 5914 5912 5910 5909 5907 5906 5906 5905 5903 5901 5900 5900 5899 5897 5895 5893 5892 5891 5890 5889 5889 5888 5887 5886 5886 5885 5885 5885 5885 5884 5884 5884 5884 5884 5884 5885 5885 5885 5885 5884 5884 5884 5885 5885 5885 5886 5886
5916 5916 5916 5914 5912 5911 5910 5909 5908 5907 5905 5904 5904 5902 5901 5899 5897 5895 5894 5893 5892 5891 5891 5890 5889 5888 5887 5887 5887 5886 5886 5886 5886 5886 5886 5886 5886 5886 5887 5886 5886 5886 5886 5886 5886 5886 5887 5887 5888
5920 5919 5918 5916 5915 5914 5913 5911 5910 5909 5908 5907 5906 5905 5902 5900 5899 5898 5896 5895 5894 5894 5893 5892 5891 5890 5889 5889 5888 5888 5887 5887 5887 5887 5887 5887 5888 5888 5888 5888 5888 5888 5888 5888 5888 5888 5888 5889 5889
5923 5921 5920 5918 5917 5916 5915 5914 5913 5912 5911 5909 5909 5907 5905 5902 5901 5900 5898 5897 5896 5896 5895 5894 5893 5892 5891 5890 5890 5889 5889 5889 5889 5889 5889 5889 5889 5889 5889 5889 5889 5889 5889 5890 5890 5890 5890 5890 5891
5925 5923 5923 5921 5920 5919 5918 5917 5916 5915 5914 5912 5911 5909 5907 5905 5903 5902 5901 5900 5899 5898 5897 5896 5895 5894 5893 5892 5891 5891 5890 5890 5890 5890 5890 5891 5891 5891 5891 5891 5891 5891 5891 5891 5891 5891 5892 5892 5892
5927 5925 5924 5924 5924 5923 5922 5920 5919 5918 5916 5914 5913 5911 5909 5907 5906 5904 5903 5902 5901 5900 5899 5898 5897 5896 5895 5894 5893 5892 5892 5892 5892 5892 5892 5892 5892 5892 5892 5892 5892 5892 5892 5893 5893 5893 5893 5893 5893
5928 5928 5927 5926 5926 5926 5925 5924 5922 5921 5919 5917 5915 5914 5912 5910 5908 5907 5906 5905 5904 5902 5901 5900 5899 5898 5897 5896 5895 5894 5893 5893 5893 5893 5893 5893 5893 5893 5893 5893 5893 5894 5894 5894 5894 5894 5894 5894 5894
5931 5931 5930 5930 5930 5929 5927 5927 5925 5923 5922 5920 5918 5916 5915 5913 5911 5909 5908 5907 5906 5905 5904 5902 5901 5900 5899 5898 5897 5896 5895 5895 5895 5894 5894 5894 5894 5894 5894 5894 5894 5894 5894 5895 5895 5895 5895 5895 5895
5932 5933 5933 5933 5932 5931 5930 5929 5927 5925 5924 5922 5920 5919 5917 5915 5914 5912 5911 5910 5908 5907 5906 5904 5903 5902 5901 5900 5899 5898 5897 5897 5896 5896 5895 5895 5895 5895 5896 5896 5896 5896 5896 5896 5896 5896 5897 5896 5897
5934 5935 5934 5934 5933 5933 5932 5931 5929 5928 5926 5925 5923 5922 5920 5918 5917 5915 5914 5912 5911 5910 5908 5907 5905 5904 5903 5902 5901 5900 5899 5899 5898 5898 5897 5896 5896 5896 5896 5897 5897 5897 5897 5897 5897 5897 5898 5897 5898
5935 5935 5935 5935 5935 5935 5934 5933 5932 5930 5929 5927 5925 5924 5922 5921 5919 5918 5916 5915 5913 5912 5911 5909 5908 5906 5905 5904 5903 5902 5901 5900 5900 5899 5898 5898 5898 5897 5897 5898 5898 5898 5897 5898 5898 5899 5898 5898 5898
5936 5936 5936 5936 5936 5936 5936 5935 5935 5933 5931 5929 5928 5927 5925 5923 5922 5920 5919 5917 5916 5914 5913 5911 5910 5909 5907 5906 5904 5904 5903 5902 5901 5900 5900 5899 5899 5898 5899 5899 5899 5898 5898 5899 5899 5899 5899 5899 5899
5937 5936 5936 5937 5938 5938 5938 5938 5937 5935 5933 5931 5930 5929 5927 5925 5924 5922 5921 5919 5917 5916 5914 5913 5911 5910 5908 5907 5906 5905 5904 5903 5902 5902 5901 5900 5900 5900 5899 5899 5899 5898 5899 5899 5899 5899 5899 5899 5899
5938 5938 5938 5939 5940 5940 5941 5940 5938 5937 5935 5934 5932 5930 5929 5927 5926 5924 5922 5920 5919 5918 5916 5915 5913 5911 5910 5909 5908 5907 5906 5905 5904 5903 5902 5902 5901 5901 5900 5900 5900 5900 5900 5900 5900 5900 5900 5900 5899
5939 5940 5940 5940 5941 5941 5943 5941 5940 5938 5936 5935 5933 5932 5930 5929 5927 5926 5924 5922 5921 5919 5918 5916 5915 5913 5911 5910 5909 5908 5907 5906 5905 5904 5903 5903 5902 5901 5901 5900 5900 5900 5900 5900 5900 5899 5899 5899 5899
5939 5940 5941 5941 5941 5941 5942 5942 5941 5939 5938 5936 5934 5933 5931 5930 5929 5928 5926 5924 5922 5921 5919 5918 5916 5915 5913 5911 5910 5909 5908 5908 5907 5906 5904 5903 5903 5902 5901 5901 5901 5900 5900 5900 5899 5899 5899 5898 5898
5938 5940 5940 5940 5941 5941 5941 5942 5942 5940 5939 5937 5936 5934 5932 5931 5931 5929 5928 5926 5924 5922 5921 5919 5918 5916 5915 5914 5912 5911 5910 5909 5908 5907 5905 5904 5903 5903 5902 5901 5901 5901 5900 5900 5899 5899 5898 5898 5898
5937 5938 5939 5939 5940 5940 5941 5941 5942 5941 5940 5938 5936 5935 5934 5933 5932 5931 5929 5927 5926 5924 5922 5920 5919 5918 5916 5915 5914 5912 5911 5910 5909 5907 5906 5904 5903 5903 5902 5901 5901 5900 5900 5899 5899 5898 5898 5897 5897
5935 5937 5937 5938 5939 5940 5940 5941 5941 5941 5940 5939 5937 5936 5935 5934 5933 5932 5931 5929 5927 5926 5924 5922 5921 5920 5918 5917 5915 5913 5912 5911 5909 5908 5906 5905 5904 5903 5902 5901 5900 5899 5899 5899 5898 5898 5897 5896 5896
5933 5935 5936 5937 5938 5938 5940 5940 5940 5940 5940 5939 5938 5937 5936 5935 5935 5934 5932 5931 5929 5927 5926 5924 5923 5921 5919 5918 5916 5914 5912 5911 5909 5908 5906 5905 5904 5902 5901 5900 5900 5899 5899 5898 5897 5897 5896 5895 5895
5931 5933 5934 5935 5936 5937 5939 5939 5939 5939 5939 5939 5938 5938 5937 5936 5935 5934 5933 5931 5930 5929 5927 5926 5924 5922 5921 5919 5917 5915 5913 5911 5909 5908 5906 5905 5904 5902 5901 5900 5899 5899 5898 5897 5896 5895 5895 5894 5893
5928 5930 5932 5933 5934 5935 5936 5937 5938 5938 5938 5938 5938 5938 5937 5936 5935 5935 5933 5932 5931 5929 5928 5926 5925 5923 5921 5920 5918 5916 5914 5912 5910 5908 5906 5904 5903 5901 5900 5898 5898 5898 5897 5896 5895 5894 5893 5892 5891
5924 5927 5929 5930 5931 5933 5934 5934 5935 5935 5936 5937 5937 5937 5936 5935 5935 5934 5933 5932 5931 5930 5928 5927 5925 5923 5922 5920 5918 5916 5914 5911 5909 5907 5905 5904 5902 5900 5899 5897 5897 5896 5895 5894 5893 5892 5891 5890 5889
5920 5923 5925 5927 5927 5929 5931 5931 5933 5934 5934 5935 5935 5935 5935 5934 5934 5933 5932 5931 5930 5929 5928 5926 5925 5923 5922 5920 5918 5916 5914 5911 5909 5907 5905 5903 5901 5899 5898 5896 5895 5894 5893 5892 5891 5890 5889 5888 5887
5915 5919 5921 5923 5925 5927 5928 5928 5931 5931 5932 5932 5932 5933 5933 5933 5932 5932 5931 5930 5930 5929 5927 5926 5924 5922 5921 5919 5917 5915 5913 5911 5909 5906 5904 5902 5900 5898 5896 5895 5894 5892 5891 5890 5889 5888 5886 5885 5884
5910 5913 5917 5919 5921 5922 5924 5925 5927 5928 5929 5929 5929 5930 5931 5931 5930 5930 5930 5929 5929 5928 5927 5925 5924 5922 5920 5918 5916 5914 5912 5910 5907 5905 5903 5901 5899 5897 5895 5893 5892 5891 5890 5888 5887 5885 5884 5883 5881
5905 5909 5911 5913 5916 5917 5920 5921 5924 5925 5926 5927 5927 5928 5928 5929 5928 5928 5928 5928 5927 5926 5925 5924 5923 5921 5919 5917 5915 5913 5910 5908 5906 5903 5901 5899 5897 5895 5893 5892 5890 5889 5888 5886 5885 5883 5881 5880 5879
5899 5902 5905 5908 5911 5913 5915 5919 5920 5922 5923 5924 5925 5925 5926 5926 5926 5926 5926 5926 5925 5925 5923 5922 5921 5919 5917 5915 5913 5911 5909 5906 5904 5902 5900 5897 5896 5894 5892 5890 5889 5887 5885 5884 5882 5881 5879 5878 5876
5893 5896 5900 5903 5906 5908 5910 5916 5916 5918 5919 5920 5921 5922 5922 5922 5923 5923 5923 5923 5923 5922 5921 5920 5919 5917 5915 5913 5911 5909 5906 5905 5902 5900 5898 5896 5894 5892 5891 5889 5887 5885 5883 5881 5880 5878 5877 5875 5873